sat.trackr.live / text

‹ back to catalog

TIANQI-16

NORAD 64058 · 2025-105A

PAYLOAD ACTIVE UNKNOWN

§ Identity

Operator
Country
PRC
Launch date
2025-05-19
Launch site
YSLA
Launch vehicle
Mass (kg)
RCS (m²)

External: N2YO · Heavens-Above · Gunter

§ Orbital elements

Epoch: 2026-09-21T17:40:17.083776Z

Period
102.92 min
Inclination
44.9849°
Eccentricity
0.0009556
Mean motion
13.99179695 rev/d
Perigee alt
889.7 km
Apogee alt
903.6 km
Semi-major
7,274.8 km
B*
8.8905e-5
RAAN
312.8031°
Arg perigee
121.8068°
Mean anomaly
238.3697°
Rev number
6,871

§ Raw data

TIANQI-161 64058U 25105A   26264.73630884  .00000001  00000+0  88905-4 0  99992 64058  44.9849 312.8031 0009556 121.8068 238.3697 13.99179695 68711

JSON: /api/v1/satellites/64058 · /tle

For live sub-satellite position, see the globe view (requires WebGL).

§ Visibility from observer

Set your observer location to see the next 7 days of passes ≥ 10°. The values pass through the URL so the page stays shareable.

No JS? Fill the form by hand. The geolocation button needs JavaScript.